• En España
  • Lista de países
  • Para 7 días
  • Temperatura del agua
  • Mapa Satelital
  • El tiempo en el mapa
  • Informadores
  • user-avatar
    Iniciar sesión

    Tiempo cada hora Tibissa

    Hoy, 19 Octubre, Viernes

    Tiempo Temperatura Precipitaciones Viento Presión Humedad
    00:00 +16°C° 0 mm 1 mps 680 mmHg 77%
    01:00 +16°C° 0 mm 1 mps 680 mmHg 80%
    02:00 +15°C° 0 mm 1 mps 680 mmHg 81%
    03:00 +15°C° 0 mm 1 mps 681 mmHg 82%
    04:00 +15°C° 0 mm 1 mps 681 mmHg 84%
    05:00 +15°C° 0 mm 1 mps 681 mmHg 85%
    06:00 +15°C° 0 mm 1 mps 681 mmHg 85%
    07:00 +15°C° 0 mm 1 mps 682 mmHg 86%
    08:00 +16°C° 0 mm 1 mps 682 mmHg 80%
    09:00 +18°C° 0 mm 1 mps 683 mmHg 73%
    10:00 +19°C° 0 mm 1 mps 684 mmHg 66%
    11:00 +20°C° 0 mm 1 mps 684 mmHg 61%
    12:00 +21°C° 0 mm 1 mps 685 mmHg 56%
    13:00 +22°C° 0 mm 1 mps 685 mmHg 51%
    14:00 +22°C° 0 mm 1 mps 685 mmHg 50%
    15:00 +22°C° 0 mm 1 mps 685 mmHg 48%
    16:00 +23°C° 0 mm 2 mps 685 mmHg 47%
    17:00 +21°C° 0 mm 2 mps 685 mmHg 50%
    18:00 +20°C° 0 mm 2 mps 685 mmHg 54%
    19:00 +20°C° 0 mm 2 mps 686 mmHg 57%
    20:00 +19°C° 0 mm 2 mps 686 mmHg 60%
    21:00 +19°C° 0 mm 2 mps 686 mmHg 62%
    22:00 +19°C° 0 mm 1 mps 686 mmHg 65%
    23:00 +19°C° 0 mm 1 mps 686 mmHg 67%

    Mañana, 20 Octubre, Sábado

    Tiempo Temperatura Precipitaciones Viento Presión Humedad
    00:00 +18°C° 0 mm 1 mps 686 mmHg 70%
    01:00 +18°C° 0 mm 1 mps 686 mmHg 72%
    02:00 +16°C° 0 mm 1 mps 686 mmHg 74%
    03:00 +15°C° 0 mm 0 mps 686 mmHg 76%
    04:00 +14°C° 0 mm 0 mps 686 mmHg 78%
    05:00 +14°C° 0 mm 0 mps 686 mmHg 79%
    06:00 +14°C° 0 mm 0 mps 686 mmHg 79%
    07:00 +14°C° 0 mm 0 mps 687 mmHg 80%
    08:00 +15°C° 0 mm 0 mps 687 mmHg 73%
    09:00 +19°C° 0 mm 1 mps 688 mmHg 65%
    10:00 +20°C° 0 mm 1 mps 689 mmHg 58%
    11:00 +21°C° 0 mm 1 mps 689 mmHg 54%
    12:00 +22°C° 0 mm 1 mps 689 mmHg 49%
    13:00 +23°C° 0 mm 1 mps 689 mmHg 45%
    14:00 +23°C° 0 mm 1 mps 689 mmHg 44%
    15:00 +24°C° 0 mm 1 mps 689 mmHg 42%
    16:00 +24°C° 0 mm 1 mps 689 mmHg 41%
    17:00 +23°C° 0 mm 2 mps 688 mmHg 45%
    18:00 +21°C° 0 mm 2 mps 688 mmHg 49%
    19:00 +21°C° 0 mm 2 mps 688 mmHg 54%
    20:00 +20°C° 0 mm 2 mps 688 mmHg 59%
    21:00 +19°C° 0 mm 2 mps 689 mmHg 64%
    22:00 +19°C° 0 mm 2 mps 689 mmHg 69%
    23:00 +19°C° 0 mm 1 mps 689 mmHg 72%

    Pasado mañana, 21 Octubre, Domingo

    Tiempo Temperatura Precipitaciones Viento Presión Humedad
    00:00 +19°C° 0 mm 1 mps 688 mmHg 75%
    01:00 +18°C° 0 mm 1 mps 688 mmHg 78%
    02:00 +18°C° 0 mm 1 mps 688 mmHg 78%
    03:00 +18°C° 0 mm 1 mps 688 mmHg 79%
    04:00 +16°C° 0 mm 1 mps 687 mmHg 79%
    05:00 +16°C° 0 mm 1 mps 687 mmHg 79%
    06:00 +16°C° 0 mm 1 mps 687 mmHg 78%
    07:00 +16°C° 0 mm 1 mps 688 mmHg 78%
    08:00 +18°C° 0 mm 1 mps 688 mmHg 69%
    09:00 +18°C° 0 mm 0 mps 689 mmHg 61%
    10:00 +20°C° 0 mm 0 mps 689 mmHg 53%
    11:00 +22°C° 0 mm 1 mps 689 mmHg 48%
    12:00 +23°C° 0 mm 1 mps 689 mmHg 44%
    13:00 +24°C° 0 mm 1 mps 689 mmHg 40%
    14:00 +24°C° 0 mm 1 mps 689 mmHg 38%
    15:00 +25°C° 0 mm 1 mps 688 mmHg 37%
    16:00 +25°C° 0 mm 2 mps 688 mmHg 35%
    17:00 +24°C° 0 mm 2 mps 688 mmHg 40%
    18:00 +23°C° 0 mm 2 mps 688 mmHg 45%
    19:00 +21°C° 0 mm 2 mps 688 mmHg 49%
    20:00 +21°C° 0 mm 2 mps 688 mmHg 53%
    21:00 +21°C° 0 mm 1 mps 688 mmHg 56%
    22:00 +20°C° 0 mm 1 mps 688 mmHg 59%
    23:00 +20°C° 0 mm 1 mps 688 mmHg 61%

    22 Octubre, Lunes

    Tiempo Temperatura Precipitaciones Viento Presión Humedad
    00:00 +19°C° 0 mm 1 mps 688 mmHg 64%
    01:00 +19°C° 0 mm 1 mps 687 mmHg 67%
    02:00 +18°C° 0 mm 1 mps 687 mmHg 68%
    03:00 +18°C° 0 mm 1 mps 687 mmHg 70%
    04:00 +18°C° 0 mm 1 mps 686 mmHg 71%
    05:00 +18°C° 0 mm 1 mps 686 mmHg 72%
    06:00 +16°C° 0 mm 1 mps 686 mmHg 72%
    07:00 +16°C° 0 mm 1 mps 686 mmHg 73%
    08:00 +19°C° 0 mm 1 mps 687 mmHg 66%
    09:00 +19°C° 0 mm 2 mps 687 mmHg 59%
    10:00 +21°C° 0 mm 2 mps 688 mmHg 52%
    11:00 +23°C° 0 mm 2 mps 688 mmHg 47%
    12:00 +22°C° 0 mm 3 mps 688 mmHg 41%
    13:00 +24°C° 0 mm 3 mps 687 mmHg 35%
    14:00 +23°C° 0 mm 4 mps 687 mmHg 35%
    15:00 +25°C° 0 mm 4 mps 687 mmHg 34%
    16:00 +25°C° 0 mm 4 mps 687 mmHg 33%
    17:00 +22°C° 0 mm 4 mps 687 mmHg 39%
    18:00 +21°C° 0 mm 4 mps 687 mmHg 46%
    19:00 +20°C° 0 mm 4 mps 687 mmHg 52%
    20:00 +19°C° 0 mm 3 mps 687 mmHg 58%
    21:00 +18°C° 0 mm 3 mps 687 mmHg 64%
    22:00 +17°C° 0 mm 3 mps 687 mmHg 70%
    23:00 +17°C° 0 mm 3 mps 687 mmHg 73%

    23 Octubre, Martes

    Tiempo Temperatura Precipitaciones Viento Presión Humedad
    00:00 +16°C° 0 mm 3 mps 687 mmHg 76%
    01:00 +16°C° 0 mm 3 mps 686 mmHg 78%
    02:00 +16°C° 0 mm 3 mps 686 mmHg 80%
    03:00 +14°C° 0 mm 3 mps 686 mmHg 83%
    04:00 +14°C° 0 mm 4 mps 686 mmHg 85%
    05:00 +14°C° 0 mm 4 mps 686 mmHg 85%
    06:00 +13°C° 0 mm 4 mps 686 mmHg 85%
    07:00 +13°C° 0 mm 4 mps 686 mmHg 86%
    08:00 +14°C° 0 mm 5 mps 686 mmHg 76%
    09:00 +15°C° 0 mm 5 mps 687 mmHg 65%
    10:00 +16°C° 0 mm 6 mps 687 mmHg 55%
    11:00 +17°C° 0 mm 6 mps 687 mmHg 50%
    12:00 +19°C° 0 mm 6 mps 686 mmHg 45%
    13:00 +20°C° 0 mm 7 mps 686 mmHg 41%
    14:00 +18°C° 0 mm 7 mps 686 mmHg 43%
    15:00 +18°C° 0 mm 8 mps 685 mmHg 46%
    16:00 +18°C° 0 mm 8 mps 685 mmHg 49%
    17:00 +17°C° 0 mm 8 mps 685 mmHg 56%
    18:00 +16°C° 0 mm 8 mps 685 mmHg 63%
    19:00 +15°C° 0 mm 8 mps 685 mmHg 69%
    20:00 +14°C° 0 mm 7 mps 685 mmHg 72%
    21:00 +14°C° 0 mm 7 mps 685 mmHg 74%
    22:00 +12°C° 0 mm 7 mps 685 mmHg 77%
    23:00 +13°C° 0 mm 6 mps 685 mmHg 79%

    24 Octubre, Miércoles

    Tiempo Temperatura Precipitaciones Viento Presión Humedad
    00:00 +13°C° 0 mm 5 mps 685 mmHg 80%
    01:00 +12°C° 0 mm 5 mps 685 mmHg 82%
    02:00 +12°C° 0.1 mm 5 mps 685 mmHg 82%
    03:00 +11°C° 0.1 mm 6 mps 685 mmHg 82%
    04:00 +11°C° 0.1 mm 6 mps 684 mmHg 82%
    05:00 +10°C° 0 mm 7 mps 684 mmHg 80%
    06:00 +10°C° 0 mm 7 mps 684 mmHg 78%
    07:00 +9°C° 0 mm 8 mps 684 mmHg 76%
    08:00 +10°C° 0 mm 8 mps 685 mmHg 72%
    09:00 +11°C° 0 mm 9 mps 685 mmHg 69%
    10:00 +11°C° 0 mm 10 mps 685 mmHg 65%
    11:00 +12°C° 0.1 mm 9 mps 685 mmHg 65%
    12:00 +12°C° 0.1 mm 9 mps 685 mmHg 65%
    13:00 +13°C° 0.1 mm 9 mps 685 mmHg 64%
    14:00 +13°C° 0.2 mm 9 mps 685 mmHg 63%
    15:00 +13°C° 0.2 mm 9 mps 684 mmHg 61%
    16:00 +13°C° 0.2 mm 10 mps 684 mmHg 59%
    17:00 +12°C° 0.1 mm 9 mps 685 mmHg 62%
    18:00 +11°C° 0.1 mm 8 mps 685 mmHg 66%
    19:00 +10°C° 0.1 mm 8 mps 685 mmHg 69%
    20:00 +10°C° 0 mm 8 mps 685 mmHg 71%
    21:00 +9°C° 0 mm 7 mps 685 mmHg 72%
    22:00 +9°C° 0 mm 7 mps 685 mmHg 74%
    23:00 +9°C° 0.3 mm 8 mps 685 mmHg 75%
    Mostrar más